Retour au catalogue

DELTA 1 DEB

ActifUNKNOWN
NORAD 25270·DEBRIS·🇺🇸 United States

Lancé Jul 4, 1968 depuis Vandenberg Space Force Base

Loading…

Prochains Passages (prochaines 24 heures)

TLE

FraisSource: Space-Track

Époque: Sep 6, 2026, 15:40 UTC

1 25270U 68055E   26249.65332789  .00001128  00000-0  20326-2 0  9993
2 25270 120.5294 157.5829 2229414 358.6782   0.8874 10.04720668453093

Suivez DELTA 1 DEB en temps réel avec AllMySat

Download on the App Store